1529546400.47,26395,19.94,74558.0,5.31,-19.51,-19.91,0,*7D
1529546401.7,26396,19.94,74556.5,5.33,-19.57,-19.99,0,*72
1529546402.9,26397,19.94,74550.8,5.33,-19.71,-20.05,0,*78
1529546404.15,26398,19.94,74552.8,5.31,-19.65,-20.09,0,*7C
1529546405.38,26399,19.94,74556.5,5.31,-19.37,-19.75,0,*7B
1529546406.59,26400,19.94,74552.3,5.29,-19.37,-19.91,0,*7F
1529546407.81,26401,19.94,74556.3,5.31,-19.51,-19.91,0,*77
1529546409.09,26402,19.94,74554.3,5.31,-19.23,-19.65,0,*7A
1529546410.31,26403,19.94,74554.3,5.33,-19.47,-19.85,0,*75
1529546411.54,26404,19.94,74552.3,5.31,-19.51,-19.95,0,*76
1529546412.8,26405,19.94,74554.3,5.31,-19.61,-20.05,0,*77
1529546414.03,26406,19.94,74558.5,5.31,-19.51,-19.95,0,*74
1529546415.26,26407,19.94,74558.8,5.33,-19.27,-19.71,0,*7C
1529546416.49,26408,19.94,74562.0,5.31,-19.37,-19.91,0,*7E
1529546417.75,26409,19.94,74556.3,5.31,-19.61,-20.09,0,*77
1529546419.0,26410,19.94,74562.5,5.31,-19.61,-20.09,0,*7F
1529546420.26,26411,19.94,74560.5,5.31,-19.61,-20.05,0,*72
1529546421.48,26412,19.94,74558.0,5.29,-19.37,-19.81,0,*7D
1529546422.73,26413,19.94,74558.8,5.31,-19.51,-19.81,0,*75
1529546423.95,26414,19.94,74560.3,5.33,-19.41,-19.91,0,*70
1529546425.18,26415,19.94,74556.3,5.33,-19.47,-19.85,0,*72
1529546426.4,26416,19.94,74560.0,5.33,-19.31,-19.71,0,*7B
1529546427.63,26417,19.94,74562.0,5.31,-19.37,-19.75,0,*7A
1529546428.86,26418,19.94,74558.5,5.33,-18.99,-19.41,0,*75
1529546430.08,26419,19.94,74558.0,5.31,-18.99,-19.47,0,*70
1529546431.3,26420,19.94,74560.5,5.33,-18.83,-19.31,0,*72
1529546432.55,26421,19.94,74558.3,5.33,-18.93,-19.27,0,*75
1529546433.8,26422,19.94,74554.3,5.33,-18.93,-19.27,0,*76
1529546435.03,26423,19.94,74554.8,5.33,-18.83,-19.27,0,*76
1529546436.31,26424,19.94,74552.5,5.35,-18.93,-19.27,0,*76
1529546437.59,26425,19.94,74552.3,5.35,-18.93,-19.31,0,*70
1529546438.78,26426,19.94,74552.8,5.37,-19.03,-19.37,0,*7F
1529546440.02,26427,19.94,74550.0,5.35,-19.13,-19.47,0,*7A
1529546441.25,26428,19.94,74550.0,5.35,-19.07,-19.47,0,*70
1529546442.51,26429,19.94,74550.0,5.35,-19.13,-19.41,0,*72
1529546443.77,26430,19.94,74550.8,5.35,-19.13,-19.57,0,*7D
1529546445.01,26431,19.94,74546.8,5.35,-19.13,-19.47,0,*7D
1529546446.23,26432,19.94,74548.8,5.37,-19.07,-19.41,0,*7F
1529546447.53,26433,19.94,74554.0,5.35,-19.27,-19.57,0,*79
1529546448.73,26434,19.94,74554.5,5.37,-19.07,-19.37,0,*78
1529546449.95,26435,19.94,74548.8,5.37,-19.07,-19.41,0,*78
1529546451.2,26436,19.94,74552.3,5.37,-18.89,-19.27,0,*7C
1529546452.45,26437,19.94,74552.3,5.37,-18.89,-19.27,0,*7D
1529546453.64,26438,19.94,74550.5,5.37,-19.07,-19.51,0,*74
1529546454.9,26439,19.94,74550.5,5.37,-18.93,-19.27,0,*78
1529546456.14,26440,19.94,74550.3,5.41,-18.89,-19.23,0,*78
1529546457.33,26441,19.94,74554.5,5.41,-18.83,-19.17,0,*74
1529546458.53,26442,19.94,74552.5,5.41,-18.99,-19.37,0,*7E
1529546459.73,26443,19.94,74552.3,5.41,-19.07,-19.51,0,*79
1529546460.93,26444,19.94,74552.0,5.41,-19.07,-19.51,0,*7E
1529546462.13,26445,19.94,74550.8,5.41,-18.99,-19.37,0,*79
1529546463.38,26446,19.94,74554.5,5.43,-18.99,-19.31,0,*7E
1529546464.64,26447,19.94,74550.8,5.41,-19.27,-19.65,0,*78
1529546465.89,26448,19.94,74552.3,5.41,-19.23,-19.61,0,*77
1529546467.09,26449,19.94,74552.3,5.41,-19.37,-19.71,0,*72
1529546468.31,26450,19.94,74550.5,5.41,-19.37,-19.81,0,*75
1529546469.51,26451,19.94,74552.5,5.41,-19.47,-19.91,0,*72
1529546470.74,26452,19.94,74552.5,5.37,-19.37,-19.85,0,*72
1529546472.0,26453,19.94,74552.0,5.37,-19.27,-19.81,0,*76
1529546473.25,26454,19.94,74554.0,5.41,-19.31,-19.65,0,*7D
1529546474.48,26455,19.94,74552.0,5.37,-19.23,-19.71,0,*7B
1529546475.68,26456,19.94,74548.3,5.37,-19.37,-19.71,0,*7D
1529546476.94,26457,19.94,74550.3,5.37,-19.27,-19.81,0,*72
1529546478.2,26458,19.94,74548.5,5.37,-19.23,-19.57,0,*72
1529546479.45,26459,19.94,74548.0,5.41,-19.23,-19.61,0,*77
1529546480.7,26460,19.94,74550.3,5.41,-19.23,-19.65,0,*79
1529546481.96,26461,19.94,74550.3,5.37,-19.23,-19.65,0,*79
1529546483.15,26462,19.94,74554.0,5.41,-19.07,-19.51,0,*7A
1529546484.41,26463,19.94,74550.3,5.41,-19.31,-19.65,0,*79
1529546485.6,26464,19.94,74552.0,5.41,-19.47,-19.75,0,*7E
1529546486.86,26465,19.94,74552.5,5.41,-19.23,-19.65,0,*7C
1529546488.11,26466,19.94,74558.0,5.41,-19.31,-19.81,0,*76
1529546489.31,26467,19.94,74552.5,5.41,-19.47,-19.95,0,*73
1529546490.54,26468,19.94,74554.0,5.41,-19.61,-20.09,0,*77
1529546491.74,26469,19.94,74552.5,5.41,-19.51,-20.05,0,*79
1529546492.94,26470,19.94,74554.0,5.41,-19.51,-19.91,0,*76
1529546494.17,26471,19.94,74554.5,5.37,-19.57,-19.99,0,*78
1529546495.39,26472,19.94,74554.0,5.37,-19.51,-19.81,0,*74
1529546496.62,26473,19.94,74554.8,5.41,-19.37,-19.81,0,*74
1529546497.85,26474,19.94,74550.0,5.37,-19.37,-19.85,0,*76
1529546499.09,26475,19.94,74548.5,5.37,-19.41,-19.85,0,*76
1529546500.29,26476,19.94,74550.8,5.41,-19.47,-19.95,0,*73
1529546501.52,26477,19.94,74550.5,5.37,-19.65,-19.99,0,*7F
1529546502.75,26478,19.94,74548.5,5.37,-19.57,-19.99,0,*71
1529546503.98,26479,19.94,74548.8,5.37,-19.57,-19.99,0,*70
1529546505.21,26480,19.94,74548.5,5.37,-19.57,-20.09,0,*75
1529546506.44,26481,19.94,74552.5,5.37,-19.51,-19.85,0,*7C
1529546507.67,26482,19.94,74552.5,5.37,-19.51,-19.85,0,*7F
1529546508.87,26483,19.94,74554.3,5.37,-19.51,-19.95,0,*7F
1529546510.08,26484,19.94,74552.0,5.37,-19.51,-19.95,0,*78
1529546511.28,26485,19.94,74552.3,5.37,-19.51,-19.99,0,*75
1529546512.48,26486,19.94,74552.5,5.37,-19.51,-19.99,0,*76
1529546513.76,26487,19.94,74554.3,5.35,-19.61,-20.15,0,*78
1529546515.04,26488,19.94,74552.0,5.35,-19.61,-20.15,0,*77
1529546516.29,26489,19.94,74558.3,5.35,-19.71,-20.15,0,*77
1529546517.57,26490,19.94,74554.5,5.35,-19.61,-20.15,0,*7E
1529546518.83,26491,19.94,74552.0,5.35,-19.61,-20.05,0,*7E
1529546520.08,26492,19.94,74552.0,5.35,-19.61,-19.99,0,*72
1529546521.31,26493,19.94,74554.0,5.33,-19.57,-19.99,0,*70
1529546522.57,26494,19.94,74554.3,5.35,-19.57,-20.05,0,*7E
1529546523.83,26495,19.94,74552.3,5.35,-19.61,-20.05,0,*7A
1529546525.06,26496,19.94,74550.8,5.33,-19.61,-20.05,0,*7F
1529546526.28,26497,19.94,74552.0,5.33,-19.61,-20.05,0,*7E
1529546527.51,26498,19.94,74554.3,5.33,-19.61,-20.05,0,*71
1529546528.71,26499,19.94,74554.8,5.33,-19.71,-20.05,0,*71
1529546529.94,26500,19.94,74552.8,5.33,-19.61,-20.05,0,*71
1529546531.19,26501,19.94,74554.8,5.33,-19.85,-20.19,0,*77
1529546532.41,26502,19.94,74552.3,5.33,-19.85,-20.25,0,*7B
1529546533.68,26503,19.94,74550.3,5.31,-19.81,-20.19,0,*73
1529546534.91,26504,19.94,74548.0,5.33,-19.71,-20.19,0,*79
1529546536.16,26505,19.94,74550.3,5.33,-19.61,-20.15,0,*75
1529546537.41,26506,19.94,74548.5,5.31,-19.65,-20.09,0,*7D
1529546538.68,26507,19.94,74550.5,5.31,-19.81,-20.19,0,*77
1529546539.94,26508,19.94,74550.8,5.31,-19.81,-20.19,0,*78
1529546541.19,26509,19.94,74550.8,5.31,-19.81,-20.25,0,*76
1529546542.43,26510,19.94,74550.3,5.29,-19.81,-20.19,0,*78
1529546543.64,26511,19.94,74548.5,5.33,-19.75,-20.15,0,*75
1529546544.9,26512,19.94,74552.8,5.29,-19.65,-20.19,0,*70
1529546546.12,26513,19.94,74550.8,5.29,-19.75,-20.19,0,*70
1529546547.37,26514,19.94,74552.3,5.31,-19.65,-20.09,0,*7E
1529546548.6,26515,19.94,74552.3,5.29,-19.65,-20.09,0,*76
1529546549.85,26516,19.94,74550.3,5.31,-19.65,-20.09,0,*7C
1529546551.08,26517,19.94,74552.5,5.29,-19.61,-20.05,0,*7C
1529546552.27,26518,19.94,74548.5,5.29,-19.75,-20.09,0,*7A
1529546553.55,26519,19.94,74548.5,5.31,-19.65,-20.19,0,*72
1529546554.78,26520,19.94,74548.3,5.29,-19.65,-20.09,0,*70
1529546556.0,26521,19.94,74548.0,5.25,-19.71,-20.15,0,*75
1529546557.2,26522,19.94,74548.5,5.29,-19.75,-20.09,0,*73
1529546558.4,26523,19.94,74548.5,5.29,-19.75,-20.09,0,*72
1529546559.65,26524,19.94,74548.5,5.29,-19.65,-20.19,0,*75
1529546560.87,26525,19.88,74550.3,5.25,-19.81,-20.25,0,*7D
1529546562.09,26526,19.94,74548.0,5.25,-19.81,-20.25,0,*7E
1529546563.31,26527,19.94,74550.0,5.25,-19.81,-20.25,0,*7F
1529546564.54,26528,19.94,74548.5,5.23,-19.61,-20.05,0,*7A
1529546565.77,26529,19.94,74548.3,5.25,-19.57,-19.99,0,*77
1529546567.02,26530,19.94,74548.0,5.25,-19.65,-20.15,0,*70
1529546568.26,26531,19.94,74546.3,5.25,-19.81,-20.15,0,*7B
1529546569.49,26532,19.94,74548.0,5.29,-19.61,-19.95,0,*78
1529546570.69,26533,19.94,74544.0,5.29,-19.51,-19.95,0,*7A
1529546571.92,26534,19.94,74548.0,5.29,-19.61,-20.09,0,*71
1529546573.15,26535,19.94,74546.5,5.29,-19.65,-20.09,0,*74
1529546574.37,26536,19.94,74550.8,5.25,-19.71,-20.15,0,*73
1529546575.6,26537,19.94,74550.8,5.25,-19.71,-20.15,0,*72
1529546576.8,26538,19.94,74548.5,5.25,-19.75,-20.29,0,*76
1529546578.02,26539,19.94,74550.0,5.25,-19.81,-20.25,0,*70
1529546579.25,26540,19.94,74548.8,5.25,-19.65,-20.09,0,*7A
1529546580.48,26541,19.94,74548.8,5.25,-19.57,-19.99,0,*79
1529546581.73,26542,19.94,74550.0,5.25,-19.41,-19.81,0,*74
1529546582.96,26543,19.94,74550.0,5.25,-19.51,-19.85,0,*70
1529546584.18,26544,19.94,74548.3,5.23,-19.57,-19.91,0,*72
1529546585.43,26545,19.94,74550.8,5.25,-19.41,-19.81,0,*73
1529546586.66,26546,19.94,74554.0,5.25,-19.37,-19.81,0,*71
1529546587.89,26547,19.94,74552.3,5.25,-19.37,-19.65,0,*7A
1529546589.15,26548,19.94,74552.3,5.25,-19.27,-19.65,0,*74
1529546590.35,26549,19.94,74552.8,5.29,-18.99,-19.47,0,*7D
1529546591.55,26550,19.94,74552.5,5.29,-19.13,-19.51,0,*71
1529546592.75,26551,19.94,74552.5,5.29,-19.03,-19.47,0,*76
1529546593.97,26552,19.94,74548.0,5.29,-18.89,-19.37,0,*71
1529546595.19,26553,19.94,74550.8,5.31,-19.03,-19.37,0,*7A
1529546596.47,26554,19.94,74552.3,5.31,-19.23,-19.61,0,*7C
1529546597.72,26555,19.94,74550.5,5.29,-19.23,-19.61,0,*74
1529546598.97,26556,19.94,74546.5,5.29,-19.23,-19.65,0,*73
1529546600.23,26557,19.94,74544.5,5.31,-19.31,-19.75,0,*79
1529546601.48,26558,19.94,74550.8,5.31,-19.47,-19.81,0,*7C
1529546602.7,26559,19.94,74548.5,5.31,-19.47,-19.75,0,*76
1529546603.9,26560,19.94,74550.8,5.29,-19.47,-19.95,0,*7B
1529546605.13,26561,19.94,74550.8,5.29,-19.65,-20.05,0,*79
1529546606.35,26562,19.94,74550.8,5.29,-19.61,-19.91,0,*79
1529546607.61,26563,19.94,74548.8,5.31,-19.37,-19.81,0,*73
1529546608.81,26564,19.94,74550.0,5.29,-19.13,-19.51,0,*76
1529546610.06,26565,19.94,74548.8,5.31,-18.99,-19.31,0,*7B
1529546611.26,26566,19.94,74546.3,5.29,-19.03,-19.47,0,*72
1529546612.49,26567,19.94,74542.5,5.31,-19.13,-19.47,0,*7B
1529546613.72,26568,19.94,74546.3,5.33,-19.27,-19.75,0,*70
1529546614.95,26569,19.94,74546.5,5.31,-19.13,-19.37,0,*72
1529546616.18,26570,19.94,74544.0,5.33,-18.99,-19.31,0,*7D
1529546617.4,26571,19.94,74544.3,5.33,-18.83,-19.31,0,*77
1529546618.62,26572,19.94,74550.8,5.33,-18.99,-19.27,0,*78
1529546619.85,26573,19.94,74550.8,5.33,-18.99,-19.41,0,*79
1529546621.07,26574,19.88,74544.8,5.33,-18.83,-19.27,0,*75
1529546622.35,26575,19.94,74544.0,5.35,-18.93,-19.27,0,*73
1529546623.57,26576,19.94,74546.0,5.33,-19.07,-19.31,0,*7D
1529546624.77,26577,19.94,74544.3,5.33,-19.47,-19.75,0,*78
1529546626.0,26578,19.94,74548.0,5.33,-19.31,-19.71,0,*72
1529546627.25,26579,19.94,74544.8,5.35,-19.31,-19.71,0,*75
1529546628.54,26580,19.94,74546.3,5.35,-19.27,-19.61,0,*75
1529546629.83,26581,19.94,74544.0,5.35,-19.27,-19.61,0,*74
1529546631.08,26582,19.94,74546.5,5.35,-19.41,-19.75,0,*72
1529546632.33,26583,19.94,74544.8,5.35,-19.47,-19.85,0,*7A
1529546633.59,26584,19.88,74544.5,5.35,-19.31,-19.71,0,*77
1529546634.85,26585,19.94,74546.5,5.33,-19.27,-19.61,0,*76
1529546636.1,26586,19.88,74544.3,5.35,-19.17,-19.61,0,*70
1529546637.34,26587,19.94,74546.8,5.33,-19.27,-19.71,0,*75
1529546638.6,26588,19.94,74548.8,5.35,-19.17,-19.57,0,*7B
1529546639.85,26589,19.94,74548.3,5.35,-19.31,-19.71,0,*7A
1529546641.11,26590,19.94,74550.3,5.35,-19.41,-19.75,0,*71
1529546642.36,26591,19.94,74550.8,5.35,-19.31,-19.75,0,*77
1529546643.58,26592,19.88,74548.3,5.33,-19.41,-19.91,0,*7F
1529546644.84,26593,19.94,74550.8,5.35,-19.31,-19.75,0,*75
1529546646.12,26594,19.88,74546.8,5.35,-19.57,-19.85,0,*7D
1529546647.38,26595,19.94,74550.0,5.35,-19.57,-20.05,0,*7E
1529546648.58,26596,19.94,74548.8,5.33,-19.71,-20.05,0,*7F
1529546649.81,26597,19.94,74544.8,5.35,-19.47,-19.91,0,*7A
1529546651.07,26598,19.94,74546.0,5.37,-19.27,-19.65,0,*7A
1529546652.32,26599,19.94,74546.8,5.35,-19.41,-19.75,0,*78
1529546653.57,26600,19.94,74548.0,5.35,-19.41,-19.71,0,*7F
1529546654.79,26601,19.94,74548.3,5.33,-19.41,-19.75,0,*7C
1529546655.99,26602,19.88,74546.8,5.33,-19.47,-19.91,0,*73
1529546657.24,26603,19.94,74550.8,5.35,-19.41,-19.71,0,*7C
1529546658.49,26604,19.94,74546.0,5.35,-19.47,-19.85,0,*76
1529546659.74,26605,19.94,74546.8,5.35,-19.41,-19.91,0,*74
1529546660.97,26606,19.94,74550.8,5.35,-19.47,-19.91,0,*71
1529546662.2,26607,19.94,74550.3,5.35,-19.47,-19.91,0,*70
1529546663.42,26608,19.88,74550.8,5.33,-19.57,-20.05,0,*7F
1529546664.65,26609,19.94,74548.8,5.33,-19.61,-20.05,0,*7B
1529546665.89,26610,19.94,74554.5,5.35,-19.71,-20.05,0,*74
1529546667.14,26611,19.94,74548.8,5.35,-19.71,-20.19,0,*78
1529546668.37,26612,19.94,74552.0,5.33,-19.85,-20.25,0,*79
1529546669.61,26613,19.88,74548.8,5.33,-19.61,-20.15,0,*71
1529546670.84,26614,19.94,74554.0,5.33,-19.61,-20.05,0,*77
1529546672.09,26615,19.88,74548.3,5.33,-19.31,-19.85,0,*71
1529546673.32,26616,19.88,74552.3,5.33,-19.57,-20.05,0,*70
1529546674.54,26617,19.94,74550.5,5.33,-19.47,-19.85,0,*72
1529546675.8,26618,19.88,74548.8,5.33,-19.57,-19.85,0,*7C
1529546677.02,26619,19.94,74554.0,5.33,-19.47,-19.85,0,*7C
1529546678.24,26620,19.94,74552.5,5.33,-19.47,-19.85,0,*76
1529546679.44,26621,19.94,74552.5,5.33,-19.47,-19.91,0,*72
1529546680.67,26622,19.94,74554.0,5.33,-19.57,-20.05,0,*77
1529546681.87,26623,19.88,74548.0,5.33,-19.71,-20.05,0,*72
1529546683.07,26624,19.94,74548.8,5.33,-19.71,-20.05,0,*75
1529546684.29,26625,19.94,74550.3,5.33,-19.71,-20.15,0,*75
1529546685.51,26626,19.88,74548.3,5.33,-19.71,-20.15,0,*76
1529546686.71,26627,19.94,74548.0,5.33,-19.71,-20.05,0,*76
1529546687.94,26628,19.94,74550.0,5.33,-19.71,-20.19,0,*74
1529546689.19,26629,19.88,74550.3,5.31,-19.75,-20.19,0,*73
1529546690.44,26630,19.94,74548.5,5.33,-19.61,-20.15,0,*70
1529546691.69,26631,19.88,74550.3,5.31,-19.75,-20.19,0,*7A
1529546692.94,26632,19.94,74554.3,5.31,-19.75,-20.19,0,*79
1529546694.19,26633,19.94,74552.0,5.31,-19.75,-20.19,0,*78
1529546695.41,26634,19.94,74550.5,5.29,-19.75,-20.19,0,*76
1529546696.64,26635,19.94,74552.8,5.29,-19.65,-20.09,0,*77
1529546697.83,26636,19.94,74550.5,5.29,-19.75,-20.09,0,*75
1529546699.06,26637,19.94,74550.3,5.29,-19.65,-20.05,0,*79
1529546700.29,26638,19.94,74554.3,5.31,-19.51,-19.91,0,*7F
1529546701.51,26639,19.88,74550.8,5.31,-19.75,-20.09,0,*73
1529546702.74,26640,19.94,74552.5,5.29,-19.65,-20.05,0,*79
1529546704.0,26641,19.94,74554.3,5.31,-19.61,-19.95,0,*76
1529546705.23,26642,19.94,74554.3,5.29,-19.61,-19.95,0,*7C
1529546706.45,26643,19.94,74552.3,5.29,-19.61,-20.05,0,*7E
1529546707.71,26644,19.94,74554.5,5.31,-19.65,-20.09,0,*78
1529546708.9,26645,19.94,74552.8,5.29,-19.75,-20.09,0,*71
1529546710.13,26646,19.94,74552.8,5.29,-19.65,-20.09,0,*73
1529546711.33,26647,19.88,74550.3,5.29,-19.51,-19.91,0,*7E
1529546712.53,26648,19.88,74550.0,5.29,-19.51,-19.95,0,*75
1529546713.76,26649,19.94,74552.5,5.29,-19.61,-20.05,0,*74
1529546714.99,26650,19.94,74554.5,5.29,-19.65,-20.09,0,*74
1529546716.21,26651,19.94,74556.0,5.29,-19.65,-20.05,0,*79
1529546717.44,26652,19.88,74550.3,5.29,-19.61,-20.05,0,*7E
1529546718.64,26653,19.88,74550.3,5.29,-19.51,-19.91,0,*7B
1529546719.87,26654,19.94,74552.5,5.29,-19.37,-19.81,0,*7D
1529546721.12,26655,19.88,74550.3,5.29,-19.31,-19.81,0,*7A
1529546722.34,26656,19.94,74552.5,5.29,-19.47,-19.81,0,*78
1529546723.54,26657,19.94,74554.8,5.29,-19.51,-19.95,0,*7B
1529546724.77,26658,19.88,74548.0,5.29,-19.61,-19.95,0,*77
1529546726.02,26659,19.94,74550.5,5.31,-19.65,-20.09,0,*74
1529546727.25,26660,19.94,74552.5,5.29,-19.65,-20.09,0,*77
1529546728.45,26661,19.88,74548.8,5.29,-19.51,-19.91,0,*7A
1529546729.66,26662,19.94,74548.5,5.29,-19.51,-19.95,0,*7D
1529546730.9,26663,19.88,74548.8,5.25,-19.41,-19.81,0,*74
1529546732.13,26664,19.94,74552.5,5.29,-19.57,-19.91,0,*79
1529546733.35,26665,19.94,74550.5,5.29,-19.47,-19.81,0,*78
1529546734.6,26666,19.88,74552.0,5.29,-19.23,-19.65,0,*73
1529546735.83,26667,19.94,74552.8,5.29,-19.17,-19.65,0,*75
1529546737.05,26668,19.94,74552.5,5.29,-19.47,-19.81,0,*75
1529546738.31,26669,19.94,74558.0,5.29,-19.31,-19.61,0,*7B
1529546739.56,26670,19.88,74554.5,5.31,-19.23,-19.75,0,*7C
1529546740.81,26671,19.88,74548.3,5.31,-19.47,-19.81,0,*74
1529546742.04,26672,19.88,74550.5,5.29,-19.61,-19.95,0,*7F
1529546743.29,26673,19.94,74552.8,5.31,-19.61,-20.05,0,*74
1529546744.52,26674,19.94,74554.0,5.29,-19.61,-19.95,0,*79
1529546745.78,26675,19.94,74550.0,5.31,-19.65,-20.09,0,*7A
1529546747.0,26676,19.88,74550.3,5.29,-19.65,-20.09,0,*70
1529546748.23,26677,19.88,74550.8,5.29,-19.65,-20.05,0,*7D
1529546749.45,26678,19.88,74548.8,5.29,-19.61,-20.09,0,*7A
1529546750.68,26679,19.94,74554.3,5.29,-19.65,-20.09,0,*7F
1529546751.91,26680,19.88,74554.5,5.29,-19.61,-20.05,0,*71
1529546753.13,26681,19.94,74552.3,5.29,-19.75,-20.19,0,*78
1529546754.38,26682,19.88,74548.8,5.31,-19.65,-20.05,0,*7E
1529546755.61,26683,19.94,74548.0,5.29,-19.61,-20.05,0,*72
1529546756.81,26684,19.88,74546.5,5.29,-19.51,-19.91,0,*71
1529546758.04,26685,19.94,74550.3,5.29,-19.61,-20.05,0,*74
1529546759.27,26686,19.88,74550.5,5.29,-19.61,-20.09,0,*7B
1529546760.5,26687,19.88,74550.0,5.29,-19.65,-20.09,0,*7E
1529546761.72,26688,19.88,74552.3,5.29,-19.65,-20.09,0,*71
1529546762.93,26689,19.88,74552.8,5.25,-19.51,-19.95,0,*74
1529546764.15,26690,19.94,74552.3,5.29,-19.47,-19.81,0,*72
1529546765.35,26691,19.94,74554.8,5.29,-19.51,-19.75,0,*7F
1529546766.55,26692,19.94,74552.0,5.29,-19.47,-19.75,0,*7B
1529546767.77,26693,19.94,74552.5,5.31,-19.47,-19.91,0,*79
1529546768.97,26694,19.88,74548.3,5.29,-19.47,-19.91,0,*77
1529546770.22,26695,19.88,74548.8,5.29,-19.23,-19.61,0,*7B
1529546771.43,26696,19.94,74550.0,5.29,-19.13,-19.47,0,*7F
1529546772.63,26697,19.94,74552.0,5.29,-19.51,-19.91,0,*73
1529546773.83,26698,19.88,74548.0,5.29,-19.37,-19.75,0,*76
1529546775.08,26699,19.88,74548.8,5.31,-19.37,-19.81,0,*75
1529546776.28,26700,19.88,74548.0,5.29,-19.37,-19.75,0,*76
1529546777.51,26701,19.94,74554.5,5.29,-19.37,-19.81,0,*7C
1529546778.73,26702,19.88,74552.8,5.29,-19.37,-19.81,0,*7F
1529546779.96,26703,19.94,74552.0,5.29,-19.61,-19.95,0,*78
1529546781.22,26704,19.88,74548.8,5.31,-19.65,-20.05,0,*71
1529546782.45,26705,19.94,74552.3,5.31,-19.51,-19.95,0,*74
1529546783.67,26706,19.94,74554.8,5.29,-19.65,-20.05,0,*7A
1529546784.9,26707,19.94,74554.5,5.29,-19.61,-19.91,0,*78
1529546786.15,26708,19.88,74552.8,5.31,-19.61,-20.09,0,*75
1529546787.38,26709,19.94,74554.3,5.29,-19.65,-20.09,0,*79
1529546788.63,26710,19.94,74552.0,5.31,-19.65,-20.05,0,*74
1529546789.89,26711,19.88,74548.8,5.31,-19.61,-19.95,0,*72
1529546791.12,26712,19.88,74550.0,5.29,-19.65,-20.05,0,*7F
1529546792.34,26713,19.88,74550.3,5.29,-19.65,-20.09,0,*72
1529546793.57,26714,19.88,74548.8,5.29,-19.65,-20.09,0,*75
1529546794.82,26715,19.88,74548.3,5.31,-19.65,-20.09,0,*7D
1529546796.07,26716,19.88,74548.5,5.31,-19.65,-20.05,0,*72
1529546797.27,26717,19.88,74548.5,5.29,-19.75,-20.09,0,*77
1529546798.5,26718,19.94,74550.8,5.29,-19.65,-20.09,0,*79
1529546799.69,26719,19.88,74548.5,5.29,-19.75,-20.09,0,*79
1529546800.89,26720,19.88,74548.3,5.29,-19.75,-20.09,0,*73
1529546802.1,26721,19.94,74554.0,5.29,-19.81,-20.09,0,*79
1529546803.33,26722,19.88,74550.5,5.29,-19.75,-20.19,0,*70
1529546804.55,26723,19.88,74550.8,5.29,-19.75,-20.19,0,*71
1529546805.79,26724,19.94,74550.8,5.29,-19.81,-20.19,0,*7D
1529546807.02,26725,19.88,74550.8,5.29,-19.65,-19.95,0,*78
1529546808.22,26726,19.88,74548.5,5.29,-19.51,-19.91,0,*78
1529546809.45,26727,19.88,74546.5,5.29,-19.65,-19.95,0,*7A
1529546810.7,26728,19.94,74550.3,5.29,-19.65,-20.19,0,*7B
1529546811.92,26729,19.88,74550.0,5.29,-19.65,-20.05,0,*77
1529546813.15,26730,19.94,74548.5,5.29,-19.65,-20.09,0,*73
1529546814.37,26731,19.94,74548.5,5.29,-19.65,-20.09,0,*72
1529546815.6,26732,19.88,74544.8,5.25,-19.71,-20.15,0,*75
1529546816.83,26733,19.88,74548.8,5.29,-19.65,-20.09,0,*70
1529546818.05,26734,19.88,74544.8,5.29,-19.65,-20.09,0,*77
1529546819.28,26735,19.94,74550.0,5.25,-19.65,-19.99,0,*79
1529546820.48,26736,19.88,74548.5,5.29,-19.47,-19.91,0,*7E
1529546821.71,26737,19.94,74552.0,5.29,-19.61,-19.95,0,*7F
1529546822.94,26738,19.88,74550.3,5.25,-19.65,-19.99,0,*74
1529546824.17,26739,19.88,74552.3,5.25,-19.57,-19.95,0,*78
1529546825.37,26740,19.88,74550.5,5.29,-19.51,-19.75,0,*72
1529546826.57,26741,19.88,74548.5,5.25,-19.37,-19.71,0,*7B
1529546827.8,26742,19.88,74550.3,5.29,-19.17,-19.61,0,*77
1529546829.01,26743,19.88,74550.0,5.29,-19.13,-19.47,0,*76
1529546830.24,26744,19.88,74550.5,5.29,-19.13,-19.61,0,*75
1529546831.49,26745,19.88,74552.0,5.29,-19.23,-19.65,0,*73
1529546832.69,26746,19.94,74554.3,5.29,-19.47,-19.95,0,*7D
1529546833.95,26747,19.88,74548.3,5.31,-19.61,-20.05,0,*72
1529546835.17,26748,19.94,74554.0,5.29,-19.61,-20.05,0,*74
1529546836.4,26749,19.88,74550.0,5.29,-19.61,-20.05,0,*75
1529546837.63,26750,19.94,74558.0,5.29,-19.61,-20.05,0,*7D
1529546838.83,26751,19.88,74554.0,5.29,-19.47,-19.75,0,*75
1529546840.05,26752,19.94,74556.5,5.29,-19.37,-19.81,0,*7A
1529546841.28,26753,19.88,74554.3,5.29,-19.61,-19.95,0,*7D
1529546842.51,26754,19.88,74552.3,5.29,-19.61,-20.09,0,*75
1529546843.74,26755,19.88,74554.5,5.29,-19.61,-20.05,0,*78
1529546844.94,26756,19.94,74554.8,5.29,-19.51,-19.91,0,*7F
1529546846.17,26757,19.88,74554.5,5.29,-19.37,-19.81,0,*7F
1529546847.39,26758,19.94,74556.3,5.29,-19.61,-20.05,0,*75
1529546848.62,26759,19.88,74552.3,5.25,-19.71,-20.15,0,*78
1529546849.85,26760,19.88,74554.8,5.29,-19.65,-20.09,0,*76
1529546851.05,26761,19.88,74552.5,5.25,-19.71,-20.09,0,*7E
1529546852.29,26762,19.88,74552.3,5.25,-19.57,-19.95,0,*76
1529546853.49,26763,19.88,74552.0,5.29,-19.51,-19.95,0,*7D
1529546854.75,26764,19.88,74554.5,5.31,-19.61,-20.09,0,*7F
1529546855.94,26765,19.88,74554.8,5.29,-19.75,-20.09,0,*72
1529546857.17,26766,19.88,74552.5,5.29,-19.75,-20.19,0,*70
1529546858.39,26767,19.88,74554.0,5.29,-19.65,-20.09,0,*71
1529546859.6,26768,19.88,74554.8,5.25,-19.37,-19.71,0,*70
1529546860.83,26769,19.94,74554.0,5.25,-19.27,-19.71,0,*70
1529546862.08,26770,19.88,74552.8,5.29,-19.31,-19.65,0,*76
1529546863.34,26771,19.88,74554.0,5.29,-19.31,-19.65,0,*77
1529546864.54,26772,19.88,74552.8,5.29,-19.13,-19.51,0,*73
1529546865.77,26773,19.88,74552.0,5.29,-19.17,-19.61,0,*75
1529546867.02,26774,19.88,74550.5,5.29,-19.31,-19.61,0,*76
1529546868.25,26775,19.88,74552.0,5.29,-19.31,-19.51,0,*74
1529546869.44,26776,19.88,74550.3,5.29,-19.03,-19.47,0,*71
1529546870.72,26777,19.94,74552.5,5.31,-19.31,-19.65,0,*78
1529546871.95,26778,19.88,74550.3,5.29,-19.31,-19.75,0,*7F
1529546873.2,26779,19.88,74550.8,5.31,-19.23,-19.75,0,*74
1529546874.48,26780,19.88,74550.0,5.31,-19.23,-19.61,0,*77
1529546875.76,26781,19.88,74548.8,5.31,-19.23,-19.65,0,*72
1529546877.04,26782,19.88,74554.0,5.31,-19.23,-19.65,0,*71
1529546878.32,26783,19.88,74548.5,5.31,-19.23,-19.65,0,*70
1529546879.57,26784,19.88,74548.3,5.31,-19.37,-19.81,0,*78
1529546880.79,26785,19.88,74548.3,5.31,-19.51,-19.91,0,*78
1529546882.05,26786,19.88,74550.8,5.31,-19.37,-19.81,0,*7A
1529546883.25,26787,19.88,74548.5,5.29,-19.51,-19.95,0,*77
1529546884.51,26788,19.88,74550.3,5.31,-19.61,-19.91,0,*76
1529546885.75,26789,19.88,74552.8,5.31,-19.47,-19.81,0,*72
1529546886.98,26790,19.88,74552.8,5.31,-19.51,-19.95,0,*78
1529546888.21,26791,19.88,74548.3,5.29,-19.65,-20.05,0,*74
1529546889.44,26792,19.94,74552.8,5.29,-19.65,-20.05,0,*77
1529546890.66,26793,19.94,74552.8,5.29,-19.65,-20.09,0,*7A
1529546891.89,26794,19.88,74550.5,5.29,-19.65,-20.05,0,*71
1529546893.11,26795,19.88,74550.3,5.29,-19.61,-20.05,0,*74
1529546894.31,26796,19.88,74552.3,5.29,-19.47,-19.91,0,*74
1529546895.54,26797,19.88,74552.5,5.29,-19.37,-19.81,0,*73
1529546896.74,26798,19.88,74552.8,5.29,-19.47,-19.95,0,*7E
1529546897.94,26799,19.88,74554.5,5.29,-19.51,-19.91,0,*7C
1529546899.17,26800,19.88,74554.8,5.29,-19.61,-20.05,0,*77
1529546900.37,26801,19.88,74554.0,5.29,-19.51,-19.91,0,*72